Location: Mohawk View
(42.7837°N, 73.7885°W)
Time: 13:13:26
(UTC+00:00)

Cosmos 540 Rocket - Pass Details

Date: 17 June 2021
Orbit: 739 x 754 km, 74.1° (Epoch: 26 July)

Event Time Altitude Azimuth Distance (km) Brightness Sun altitude
Exits shadow 07:22:32 22° 241° (WSW) 1,564 4.6 -15.7°
Maximum altitude 07:25:15 40° 296° (WNW) 1,093 4.2 -15.4°
Drops below altitude 10° 07:30:03 10° 6° (N) 2,259 6.9 -14.9°
Sets 07:32:34 0° 14° (NNE) 3,188 8.0 -14.7°
